N3FWE Weather Reports


Display with metric or nautical units.
time (UTC)temp
F
wind
direction
speed
MPH
gust
MPH
rain 1hr
in
rain 24hr
in
rain mn
in
humidity
%
barometer
mb
20260906012005 68 99 0.0 0.0 0.00 0.00 0.00 81 1014.3
20260906011004 68 99 0.0 0.0 0.00 0.00 0.00 81 1014.2
20260906010004 69 99 0.0 0.0 0.00 0.00 0.00 79 1014.2
20260906005004 69 99 0.0 0.0 0.00 0.00 0.00 78 1014.0
20260906004005 70 99 0.0 0.0 0.00 0.00 0.00 76 1013.9
20260906003004 71 99 0.0 0.0 0.00 0.00 0.00 76 1013.9
20260906002004 71 99 0.0 0.0 0.00 0.00 0.00 74 1013.8
20260906001004 72 98 0.0 0.0 0.00 0.00 0.00 72 1013.6
20260906000005 73 98 0.0 0.0 0.00 0.00 0.00 70 1013.5
20260905235004 74 98 0.0 0.0 0.00 0.00 0.00 69 1013.4
20260905234004 75 98 0.0 0.0 0.00 0.00 0.00 66 1013.3
20260905233004 76 98 0.0 0.0 0.00 0.00 0.00 63 1013.2
20260905232005 76 98 0.0 0.0 0.00 0.00 0.00 61 1013.3
20260905231004 77 98 0.0 0.0 0.00 0.00 0.00 60 1013.2
20260905230005 77 98 1.0 4.0 0.00 0.00 0.00 60 1013.1
20260905225004 78 355 1.0 2.0 0.00 0.00 0.00 59 1013.0
20260905224004 78 59 1.0 3.0 0.00 0.00 0.00 59 1012.8
20260905223006 78 80 1.0 2.0 0.00 0.00 0.00 59 1012.8
20260905222004 78 59 1.0 4.0 0.00 0.00 0.00 57 1012.9
20260905221003 78 53 2.0 4.0 0.00 0.00 0.00 58 1012.8
20260905220005 79 58 1.0 4.0 0.00 0.00 0.00 58 1012.8
20260905215003 79 330 1.0 4.0 0.00 0.00 0.00 57 1012.8
20260905214002 79 45 2.0 4.0 0.00 0.00 0.00 57 1012.7
20260905213003 79 26 2.0 3.0 0.00 0.00 0.00 58 1012.6
20260905212003 79 336 1.0 4.0 0.00 0.00 0.00 59 1012.5
20260905211003 79 24 0.0 2.0 0.00 0.00 0.00 57 1012.5
20260905210003 79 15 1.0 3.0 0.00 0.00 0.00 59 1012.5
20260905205003 79 78 2.0 7.0 0.00 0.00 0.00 59 1012.7
20260905204003 79 82 1.0 4.0 0.00 0.00 0.00 59 1012.7
20260905203004 79 52 2.0 4.0 0.00 0.00 0.00 59 1012.7
20260905202003 79 25 2.0 5.0 0.00 0.00 0.00 58 1012.8
20260905201003 79 80 2.0 9.0 0.00 0.00 0.00 60 1012.8
20260905200004 78 117 2.0 5.0 0.00 0.00 0.00 61 1013.0
20260905195004 79 48 2.0 5.0 0.00 0.00 0.00 59 1013.1
20260905194003 80 115 2.0 4.0 0.00 0.00 0.00 59 1013.1
20260905193004 79 310 2.0 8.0 0.00 0.00 0.00 59 1013.0
20260905192003 79 22 2.0 4.0 0.00 0.00 0.00 61 1013.0
20260905191003 79 54 3.0 6.0 0.00 0.00 0.00 60 1013.1
20260905190003 80 42 3.0 9.0 0.00 0.00 0.00 61 1013.1
20260905185003 79 22 3.0 9.0 0.00 0.00 0.00 61 1013.2
20260905184004 79 62 2.0 8.0 0.00 0.00 0.00 60 1013.4
20260905183004 79 46 2.0 4.0 0.00 0.00 0.00 64 1013.4
20260905182004 79 51 2.0 7.0 0.00 0.00 0.00 61 1013.5
20260905181003 78 42 2.0 7.0 0.00 0.00 0.00 62 1013.6
20260905180005 79 15 2.0 6.0 0.00 0.00 0.00 62 1013.6
20260905175004 77 52 2.0 4.0 0.00 0.00 0.00 62 1013.7
20260905174003 79 61 1.0 4.0 0.00 0.00 0.00 61 1013.6
20260905173004 79 347 2.0 8.0 0.00 0.00 0.00 62 1013.7
20260905172003 79 15 1.0 5.0 0.00 0.00 0.00 61 1013.7
20260905171003 79 59 2.0 4.0 0.00 0.00 0.00 63 1013.9
20260905170005 78 315 3.0 10.0 0.00 0.00 0.00 63 1014.1
20260905165004 79 347 3.0 10.0 0.00 0.00 0.00 61 1014.1
20260905164003 78 294 3.0 6.0 0.00 0.00 0.00 63 1014.1
20260905163003 77 61 2.0 5.0 0.00 0.00 0.00 65 1014.2
20260905162003 77 28 2.0 7.0 0.00 0.00 0.00 68 1014.3
20260905161004 77 348 1.0 4.0 0.00 0.00 0.00 67 1014.5
20260905160003 76 46 2.0 4.0 0.00 0.00 0.00 65 1014.5
20260905155004 76 306 3.0 9.0 0.00 0.00 0.00 68 1014.7
20260905154003 76 14 1.0 7.0 0.00 0.00 0.00 66 1014.7
20260905153004 76 5 2.0 6.0 0.00 0.00 0.00 66 1014.6
20260905152005 76 323 1.0 5.0 0.00 0.00 0.00 66 1014.6
20260905151003 77 257 2.0 8.0 0.00 0.00 0.00 66 1014.7
20260905150003 77 346 2.0 6.0 0.00 0.00 0.00 67 1014.7
20260905145002 76 313 2.0 5.0 0.00 0.00 0.00 69 1014.6
20260905144002 76 63 0.0 4.0 0.00 0.00 0.00 70 1014.5
20260905143003 75 27 2.0 4.0 0.00 0.00 0.00 70 1014.4
20260905142003 75 38 2.0 4.0 0.00 0.00 0.00 70 1014.2
20260905141003 75 73 1.0 2.0 0.00 0.00 0.00 72 1013.9
20260905140004 74 66 1.0 3.0 0.00 0.00 0.00 73 1013.9
20260905135003 75 332 1.0 4.0 0.00 0.00 0.00 71 1013.9
20260905134004 74 323 1.0 5.0 0.00 0.00 0.00 71 1014.2
20260905133005 74 279 1.0 5.0 0.00 0.00 0.00 74 1014.3
20260905132003 73 320 1.0 2.0 0.00 0.00 0.00 74 1014.2
20260905131003 74 319 1.0 6.0 0.00 0.00 0.00 74 1014.3
20260905130003 74 331 0.0 2.0 0.00 0.00 0.00 74 1014.2
20260905125002 73 321 1.0 6.0 0.00 0.00 0.00 75 1014.2
20260905124002 73 257 0.0 2.0 0.00 0.00 0.00 76 1014.0
20260905123003 72 309 1.0 6.0 0.00 0.00 0.00 76 1014.0
20260905122004 72 84 0.0 2.0 0.00 0.00 0.00 77 1013.9
20260905121003 72 98 1.0 2.0 0.00 0.00 0.00 77 1013.9
20260905120006 72 98 1.0 3.0 0.00 0.00 0.00 77 1013.9
20260905115004 72 101 0.0 3.0 0.00 0.00 0.00 78 1013.9
20260905114002 72 98 0.0 3.0 0.00 0.00 0.00 77 1013.9
20260905113002 71 94 0.0 0.0 0.00 0.00 0.00 78 1013.7
20260905112002 71 94 1.0 6.0 0.00 0.00 0.00 78 1013.7
20260905111002 71 107 1.0 2.0 0.00 0.00 0.00 78 1013.6
20260905110003 71 75 0.0 3.0 0.00 0.00 0.00 78 1013.6
20260905105002 71 78 0.0 0.0 0.00 0.00 0.00 78 1013.6
20260905104003 72 78 1.0 3.0 0.00 0.00 0.00 77 1013.4
20260905103003 72 73 1.0 3.0 0.00 0.00 0.00 77 1013.2
20260905102004 72 103 0.0 0.0 0.00 0.00 0.00 78 1013.2
20260905101004 72 103 0.0 2.0 0.00 0.00 0.00 78 1013.1
20260905100004 72 103 0.0 1.0 0.00 0.00 0.00 78 1013.0
20260905095003 72 105 0.0 3.0 0.00 0.00 0.00 79 1013.0
20260905094003 73 100 0.0 0.0 0.00 0.00 0.00 78 1013.1
20260905093004 73 63 1.0 2.0 0.00 0.00 0.00 78 1012.8
20260905092002 73 61 1.0 3.0 0.00 0.00 0.00 78 1012.7
20260905091001 73 13 2.0 4.0 0.00 0.00 0.00 78 1012.8
20260905090004 73 61 1.0 3.0 0.00 0.00 0.00 78 1012.7
20260905085002 73 57 2.0 4.0 0.00 0.00 0.00 78 1012.5
20260905084002 73 53 1.0 3.0 0.00 0.00 0.00 78 1012.7
20260905083001 74 37 0.0 0.0 0.00 0.00 0.00 77 1012.6
20260905082001 74 36 1.0 3.0 0.00 0.00 0.00 77 1012.7
20260905081001 74 53 1.0 3.0 0.00 0.00 0.00 77 1013.0
20260905080002 75 32 1.0 3.0 0.00 0.00 0.00 76 1012.9
20260905075002 75 34 1.0 2.0 0.00 0.00 0.00 76 1012.9
20260905074001 75 40 1.0 3.0 0.00 0.00 0.00 77 1013.0
20260905073002 75 43 0.0 3.0 0.00 0.00 0.00 79 1012.8
20260905072001 75 339 1.0 9.0 0.00 0.00 0.00 79 1012.9
20260905071003 75 38 0.0 3.0 0.00 0.00 0.00 81 1013.0
20260905070002 75 32 1.0 5.0 0.00 0.00 0.00 82 1013.0
20260905065001 75 320 1.0 3.0 0.00 0.00 0.00 83 1013.0
20260905064001 75 329 1.0 6.0 0.00 0.00 0.00 83 1013.2
20260905063002 75 313 0.0 2.0 0.00 0.00 0.00 83 1013.1
20260905062001 75 5 0.0 0.0 0.00 0.00 0.00 83 1013.0
20260905061001 75 9 0.0 0.0 0.00 0.00 0.00 83 1013.2
20260905060002 75 319 0.0 0.0 0.00 0.00 0.00 83 1013.2
20260905055001 75 320 0.0 3.0 0.00 0.00 0.00 82 1013.4
20260905054001 75 337 0.0 3.0 0.00 0.00 0.00 83 1013.5
20260905053001 75 288 0.0 2.0 0.00 0.00 0.00 84 1013.5
20260905052001 75 286 0.0 3.0 0.00 0.00 0.00 84 1013.5
20260905051002 75 269 0.0 0.0 0.00 0.00 0.00 84 1013.7
20260905050002 75 288 1.0 3.0 0.00 0.00 0.00 85 1013.9
20260905045001 75 298 2.0 4.0 0.00 0.00 0.00 85 1014.0
20260905044001 75 245 1.0 4.0 0.00 0.00 0.00 85 1013.9
20260905043001 75 304 0.0 0.0 0.00 0.00 0.00 85 1013.8
20260905042001 75 304 0.0 4.0 0.00 0.00 0.00 85 1013.8
20260905041004 75 271 0.0 0.0 0.00 0.00 0.00 85 1013.8
20260905040007 75 271 0.0 0.0 0.00 0.00 0.00 85 1013.8
20260905035004 76 271 0.0 0.0 0.00 0.00 0.00 84 1013.9
20260905034005 76 271 0.0 0.0 0.00 0.00 0.00 84 1013.8
20260905033004 76 271 0.0 0.0 0.00 0.00 0.00 83 1013.7
20260905032004 76 271 0.0 0.0 0.00 0.00 0.00 82 1013.6
20260905031004 76 271 0.0 0.0 0.00 0.00 0.00 82 1013.5
20260905030004 77 271 0.0 0.0 0.00 0.00 0.00 81 1013.6
20260905025004 77 271 0.0 0.0 0.00 0.00 0.00 82 1013.6
20260905024004 77 271 0.0 0.0 0.00 0.00 0.00 82 1013.5
20260905023006 77 271 0.0 0.0 0.00 0.00 0.00 82 1013.4
20260905022005 77 275 0.0 1.0 0.00 0.00 0.00 81 1013.3
20260905021004 77 275 0.0 1.0 0.00 0.00 0.00 81 1013.3
20260905020004 78 275 0.0 0.0 0.00 0.01 0.00 80 1013.1
20260905015003 78 275 0.0 0.0 0.00 0.01 0.00 80 1013.2
20260905014003 79 275 0.0 2.0 0.00 0.01 0.00 79 1013.3
20260905013003 80 288 1.0 4.0 0.00 0.01 0.00 77 1013.2